Weather History for Casper, WY

Change the Weather History Date:

Monday, November 11, 2013

  Actual Average Record
Temperature  
Mean Temperature 32 °F 35 °F  
Max Temperature 45 °F 47 °F 68 °F (1989)
Min Temperature 19 °F 24 °F -19 °F (2000)
Degree Days  
Heating Degree Days 33 30  
Month to date heating degree days 322 301  
Since 1 July heating degree days 1211 1200  
Cooling Degree Days 0 0  
Month to date cooling degree days 0 0  
Year to date cooling degree days 618 422  
Moisture  
Dew Point 25 °F    
Average Humidity 73    
Maximum Humidity 100    
Minimum Humidity 45    
Precipitation  
Precipitation 0.00 in 0.03 in 0.25 in (1955)
Month to date precipitation 0.01 0.32  
Year to date precipitation 13.71 11.59  
Snow  
Snow 0.00 in 0.30 in - ()
Month to date snowfall 0.1 3.5  
Since 1 July snowfall 21.3 12.7  
Since 1 September snowfall 21.3 12.7  
Snow Depth 0.00 in    
Sea Level Pressure  
Sea Level Pressure 30.39 in    
Wind  
Wind Speed 7 mph (NNE)    
Max Wind Speed 17 mph    
Max Gust Speed 22 mph    
Visibility 9 miles    
Events      
T = Trace of Precipitation, MM = Missing Value Source: NWS Daily Summary

Daily Weather History Graph

Daily Weather History Graph

Search for Another Location

Airport:

Trip Planner

Search our weather history database for the weather conditions in past years. The results will help you decide how hot, cold, wet, or windy it might be!

Date:

Astronomy

Nov. 11, 2013 Rise Set
Actual Time 6:53 AM MST 4:46 PM MST
Civil Twilight 6:23 AM MST 5:16 PM MST
Nautical Twilight 5:49 AM MST 5:50 PM MST
Astronomical Twilight 5:15 AM MST 6:23 PM MST
Moon 1:36 PM MST (11/11) 12:32 AM MST (11/11)
Length of Visible Light 10h 53m
Length of Day
9h 52m
Waxing Gibbous, 67% of the Moon is Illuminated
Nov 11
Waxing Gibbous
Nov 17
Full
Nov 25
Last Quarter
Dec 2
New
Dec 9
First Quarter

Hourly Weather History & Observations

Time (MST) Temp. Windchill Dew Point Humidity Pressure Visibility Wind Dir Wind Speed Gust Speed Precip Events Conditions
12:53 AM 42.1 °F 35.7 °F 24.1 °F 49% 30.09 in 10.0 mi SW 11.5 mph - N/A   Clear
1:53 AM 44.1 °F 38.6 °F 25.0 °F 47% 30.08 in 10.0 mi SW 10.4 mph - N/A   Clear
2:53 AM 42.1 °F 36.6 °F 24.1 °F 49% 30.09 in 10.0 mi SW 9.2 mph - N/A   Clear
3:53 AM 37.0 °F 30.4 °F 24.1 °F 59% 30.12 in 10.0 mi SW 9.2 mph - N/A   Clear
4:53 AM 26.1 °F 14.0 °F 23.0 °F 88% 30.24 in 10.0 mi NNW 15.0 mph - N/A   Clear
5:06 AM 24.8 °F 11.5 °F 24.8 °F 100% 30.23 in 6.0 mi NNW 17.3 mph - N/A   Scattered Clouds
5:33 AM 26.6 °F 13.8 °F 24.8 °F 93% 30.25 in 10.0 mi NNW 17.3 mph - N/A   Mostly Cloudy
5:53 AM 27.0 °F 16.1 °F 25.0 °F 92% 30.29 in 10.0 mi NNW 12.7 mph - N/A   Mostly Cloudy
6:44 AM 26.6 °F - 26.6 °F 100% 30.31 in 1.5 mi North - - N/A   Overcast
6:51 AM 26.6 °F 18.2 °F 26.6 °F 100% 30.31 in 2.0 mi North 8.1 mph - N/A   Overcast
6:53 AM 26.1 °F - 26.1 °F 100% 30.37 in 2.0 mi North - - N/A   Overcast
7:21 AM 26.6 °F 21.2 °F 24.8 °F 93% 30.33 in 5.0 mi NNW 4.6 mph - N/A   Overcast
7:53 AM 27.0 °F 19.5 °F 25.0 °F 92% 30.41 in 6.0 mi ENE 6.9 mph - N/A   Overcast
8:53 AM 27.0 °F - 26.1 °F 96% 30.41 in 7.0 mi Calm Calm - N/A   Overcast
9:53 AM 28.9 °F - 26.1 °F 89% 30.43 in 9.0 mi Calm Calm - N/A   Overcast
10:19 AM 30.2 °F 24.3 °F 26.6 °F 86% 30.39 in 10.0 mi NNE 5.8 mph - N/A   Overcast
10:53 AM 32.0 °F 26.4 °F 26.1 °F 79% 30.40 in 10.0 mi NNE 5.8 mph - N/A   Overcast
11:33 AM 33.8 °F 28.6 °F 26.6 °F 75% 30.39 in 10.0 mi North 5.8 mph - N/A   Mostly Cloudy
11:51 AM 35.6 °F 31.7 °F 26.6 °F 70% 30.38 in 10.0 mi Variable 4.6 mph - N/A   Scattered Clouds
11:53 AM 35.1 °F 31.0 °F 27.0 °F 72% 30.39 in 10.0 mi North 4.6 mph - N/A   Scattered Clouds
12:53 PM 37.9 °F 35.5 °F 28.0 °F 68% 30.37 in 10.0 mi Variable 3.5 mph - N/A   Clear
1:53 PM 39.9 °F 35.8 °F 28.0 °F 63% 30.36 in 10.0 mi NNE 5.8 mph - N/A   Clear
2:53 PM 42.1 °F 38.4 °F 27.0 °F 55% 30.37 in 10.0 mi East 5.8 mph - N/A   Clear
3:53 PM 41.0 °F 32.8 °F 28.0 °F 60% 30.43 in 10.0 mi NE 16.1 mph - N/A   Clear
4:37 PM 39.2 °F 30.8 °F 26.6 °F 61% 30.43 in 10.0 mi East 15.0 mph - N/A   Mostly Cloudy
4:53 PM 37.0 °F 29.8 °F 27.0 °F 67% 30.51 in 10.0 mi East 10.4 mph - N/A   Mostly Cloudy
5:53 PM 35.1 °F 27.4 °F 26.1 °F 70% 30.56 in 10.0 mi East 10.4 mph - N/A   Mostly Cloudy
6:53 PM 35.1 °F 27.9 °F 26.1 °F 70% 30.57 in 10.0 mi East 9.2 mph - N/A   Overcast
7:53 PM 34.0 °F 31.0 °F 26.1 °F 73% 30.58 in 10.0 mi NE 3.5 mph - N/A   Overcast
8:53 PM 33.1 °F - 26.1 °F 75% 30.61 in 10.0 mi Calm Calm - N/A   Overcast
9:53 PM 32.0 °F - 26.1 °F 79% 30.61 in 10.0 mi Calm Calm - N/A   Clear
10:53 PM 23.0 °F - 19.9 °F 88% 30.65 in 10.0 mi North - - N/A   Clear
11:53 PM 19.9 °F - 18.0 °F 92% 30.66 in 9.0 mi Calm Calm - N/A   Clear